Regional Weather Roundup
Issued by NWS

Home | Current Version | Previous Version | Graphics & Text | Print | Product List | Glossary On
Versions: 1 2 3 4 5 6 7 8 9 10 11 12 13 14 15 16 17 18 19 20 21 22 23 24 25 26 27 28 29 30 31 32 33 34 35 36 37 38 39 40 41 42 43 44 45 46 47 48 49 50
000
ASUS43 KLOT 030409
RWRIL

ILLINOIS REGIONAL WEATHER ROUNDUP
NATIONAL WEATHER SERVICE CHICAGO/ROMEOVILLE IL
1100 PM CDT WED SEP 02 2015

NOTE: "FAIR" INDICATES FEW OR NO CLOUDS BELOW 12,000 FEET WITH NO
SIGNIFICANT WEATHER AND/OR OBSTRUCTIONS TO VISIBILITY.

* THESE STATIONS ARE NOT UNDER NWS QUALITY CONTROL. THEY ALSO MAY NOT
  REPORT WEATHER SUCH AS PRECIPITATION OR FOG.

ILZ001-002-007-009-015-016-024-030500-
NORTHWEST ILLINOIS

CITY           SKY/WX    TMP DP  RH WIND       PRES   REMARKS
MOLINE         PTCLDY    76  67  73 CALM      29.96R
STERLING*      CLOUDY    77  72  83 CALM      29.95R
SAVANNA*       CLOUDY    74  69  84 S6        29.95S
$$

ILZ003-004-008-010-011-017-018-030500-
NORTH CENTRAL ILLINOIS

CITY           SKY/WX    TMP DP  RH WIND       PRES   REMARKS
ROCKFORD       MOCLDY    75  70  84 S5        29.97S
FREEPORT*      MOCLDY    74  69  83 S6        29.98R
ROCHELLE*      MOCLDY    72  69  91 S7        29.98S
DE KALB*       CLOUDY    73  70  91 CALM      29.99S
PERU*          MOCLDY    77  68  73 S5        29.99R
$$

ILZ005-006-012>014-019>023-030500-
NORTHEAST ILLINOIS

CITY           SKY/WX    TMP DP  RH WIND       PRES   REMARKS
CHICAGO-OHARE  MOCLDY    79  67  66 S6        29.97S HX  81
CHICAGO-MIDWAY MOCLDY    82  69  64 S5        29.98R HX  85
AURORA         MOCLDY    76  69  79 S5        29.98S
LANSING*       PTCLDY    75  68  79 CALM      29.99S
JOLIET*        CLOUDY    74  72  91 CALM      29.98S
WAUKEGAN       MOCLDY    76  69  79 S5        29.96S
DUPAGE AIRPORT PTCLDY    74  67  78 S3        29.98R
KANKAKEE*      PTCLDY    74  70  86 SW5       30.00S
WHEELING       PTCLDY    77  68  73 S5        29.98S
MORRIS*        MOCLDY    73  70  90 CALM      29.97S
ROMEOVILLE*    CLOUDY    75  68  80 S5        29.99S
NORTHERLY ISL    N/A     80  67  64 S3          N/A  HX  82
$$

LMZ740>746-030500-
SOUTHERN LAKE MICHIGAN

STATION/POSITION SKY/WX   TEMP    WIND        PRES    VSBY  WAVE
                          AIR SEA DIR/SP/G                  HT/PER
                          (F)     (DEG/KT/KT) (MB)    (MI)  (FT/S)
SOUTHERN BUOY              73 71  170/  6/  6 1014.3R
WILMETTE HARBOR            71 60  330/  6/  6   N/A           0
HARRISON CRIB              82     180/  8/  9   N/A
BURNHAM HARBOR             80     200/  5       N/A
CALUMET HARBOR             81     180/  4/  4   N/A
BURNS HARBOR               80     190/  7/  8 1015.9R
MICHIGAN CITY              82     160/  8/ 10   N/A
MICHIGAN CITY 6N           77 73  200/  6/  8   N/A           1
ST. JOSEPH                 76 74  230/  6/  8   N/A           1
$$

ILZ025>027-034>036-040-047-049-050-058-095>099-030500-
WEST-CENTRAL ILLINOIS

CITY           SKY/WX    TMP DP  RH WIND       PRES   REMARKS
QUINCY         MOCLDY    77  69  76 S5        29.98S
GALESBURG*     CLEAR     73  68  83 S6        29.98R
MACOMB*        CLEAR     76  69  79 S7        30.00S
JACKSONVILLE*  CLEAR     76  69  76 S5        29.99S
PITTSFIELD*    CLEAR     74  69  83 S3        30.00F
$$

ILZ028>032-037-038-041>044-048-051>054-059>061-030500-
CENTRAL ILLINOIS

CITY           SKY/WX    TMP DP  RH WIND       PRES   REMARKS
PONTIAC        CLEAR     71  69  95 CALM      30.00S
BLOOMINGTON    CLEAR     72  68  87 SW6       30.02S
DECATUR        CLEAR     76  67  73 S6        30.01S
PEORIA         CLEAR     77  66  68 S5        29.98S
LACON*         PTCLDY    75  68  77 S3        29.97S
LINCOLN*       CLEAR     73  65  75 CALM      29.99S
SPRINGFIELD    CLEAR     74  67  78 S5        30.00S
TAYLORVILLE    CLEAR     72  68  88 S5        30.01S
$$

ILZ033-039-045-046-055>057-062-063-030500-
EAST-CENTRAL ILLINOIS

CITY           SKY/WX    TMP DP  RH WIND       PRES   REMARKS
CHAMPAIGN      CLEAR     72  68  87 S5        30.02S
RANTOUL*       CLEAR     76  70  83 SW3       30.01S
MATTOON        CLEAR     74  69  85 S5        30.01F
PARIS*         CLEAR     69  68  96 CALM      30.03S
$$

ILZ079-100>102-030500-
SOUTHWEST ILLINOIS

CITY           SKY/WX    TMP DP  RH WIND       PRES   REMARKS
ALTON          CLEAR     73  69  89 CALM      30.01S
BELLEVILLE     CLEAR     75  74  95 CALM      29.99F
CAHOKIA*       CLEAR     78  70  76 S3        30.00S HX  80
SPARTA*        CLEAR     75  70  86 CALM      30.03S
$$

ILZ064>066-069>071-074>076-080>082-084>086-088>090-092>094-030500-
SOUTH-CENTRAL ILLINOIS

CITY           SKY/WX    TMP DP  RH WIND       PRES   REMARKS
CARBONDALE     PTCLDY    71  69  93 CALM      30.02S
CAIRO*         CLEAR     69  69 100 CALM      30.02S
EFFINGHAM*     PTCLDY    71  68  90 CALM      30.03F
MARION         PTCLDY    77  72  83 CALM      30.03S
MT. VERNON     PTCLDY    70  63  78 CALM      30.03S
CENTRALIA*     PTCLDY    71  70  98 CALM      30.01F
SALEM*         PTCLDY    71  68  90 CALM      30.02S
METROPOLIS*    CLEAR     70  69  96 CALM      30.03S FOG
$$

ILZ067-068-072-073-078-083-087-091-030500-
SOUTHEAST ILLINOIS

CITY           SKY/WX    TMP DP  RH WIND       PRES   REMARKS
LAWRENCEVILLE  PTCLDY    73  69  87 CALM      30.02F
FLORA*         PTCLDY    70  67  89 CALM      30.02F
FAIRFIELD*     PTCLDY    72  69  91 CALM      30.01S
HARRISBURG*    PTCLDY    71  69  93 CALM      30.02F
ROBINSON*      PTCLDY    69  67  95 CALM      30.03S FOG
CARMI*         CLEAR     69  68  95 CALM      30.02S
$$

ABBREVIATIONS USED IN REMARKS
   TC - TEMPERATURE IN CELSIUS
  WCI - WIND CHILL INDEX
   HX - HEAT INDEX
  VSB - VISIBILITY
$$




USA.gov is the U.S. government's official web portal to all federal, state and local government web resources and services.